Retour au catalogue

STARLINK-37472

ActifCommunicationsVLEO
NORAD 69172·PAYLOAD·🇺🇸 United States

Lancé May 21, 2026 depuis Cape Canaveral Space Force Station

Loading…

Prochains Passages (prochaines 24 heures)

TLE

FraisSource: CelesTrak SupGP

Époque: Sep 15, 2026, 04:31 UTC

1 69172C 26111AA  26258.18868056 -.00026952  00000+0 -79631-3 0  2583
2 69172  53.1564  90.2552 0001218  89.9423  50.2990 15.34403664    13

Suivez STARLINK-37472 en temps réel avec AllMySat

Download on the App Store